Location: Malanoce
(44.2500°N, 7.4667°E)
Time: 04:37:25
(UTC+00:00)

CZ-2D R/B - Pass Details

Date: 17 November 2025
Orbit: 525 x 597 km, 98.0° (Epoch: 09 December)

Event Time Altitude Azimuth Distance (km) Brightness Sun altitude
Rises 17:44:06 0° 166° (SSE) 2,776 6.9 -18.3°
Reaches altitude 10° 17:46:13 10° 167° (SSE) 1,892 6.0 -18.7°
Maximum altitude 17:50:20 87° 254° (WSW) 596 3.4 -19.4°
Drops below altitude 10° 17:54:34 10° 346° (NNW) 1,939 6.2 -20.2°
Sets 17:56:45 0° 347° (NNW) 2,851 7.0 -20.6°
